Flag for Canada Weather past 2 weeks in Prince George, British Columbia, Canada

Now
43 °F

Low clouds.


Feels Like: 36 °F
Forecast: 37 / 51 °F
Wind: 12 mph from South

Location: Prince George

Current Time: Oct 23, 2014 at 4:59:02 AM

Latest Report: Oct 23, 2014 at 4:02 AM


Visibility: 7 mi

Pressure: 29.44 "Hg

Humidity: 93%

Dew point: 41 °F

Location of Prince GeorgeLocation

Historic Weather in Prince George — Graph

°F

Prince George temperature yesterday

Maximum temperature yesterday: 55 °F (at 2:56 AM)
Minimum temperature yesterday: 43 °F (at 9:00 PM)
Average temperature yesterday: 49 °F

Past Weeks' High & Low Weather Summary

 TemperatureHumidityPressure
High68 °F (Oct 9, 4:00 PM)100% (Oct 8, 3:03 AM)30.09 "Hg (Oct 8, 3:03 AM)
Low28 °F (Oct 15, 4:56 AM)38% (Oct 19, 3:00 PM)29.39 "Hg (Oct 22, 5:45 AM)
Average49 °F75%29.73 "Hg
* Reported Oct 8 3:03 AM — Oct 23 3:00 AM, Prince George, Weather by CustomWeather, © 2014

Note: Actual official high and low records may vary slightly from our data, if they occured in-between our weather recording intervals... More about our weather records

Advertising

Prince George weather history for previous 24 hours

 ConditionsComfort  
Time TempWeatherWind HumidityBarometerVisibility
3:00 AM
Oct 23
43 °FMostly cloudy.2 mph87%29.41 "Hg9 mi
2:00 AM43 °FOvercast.5 mph87%29.42 "Hg9 mi
1:00 AM41 °FMostly cloudy.6 mph93%29.43 "Hg9 mi
12:00 AM43 °FPassing clouds.9 mph93%29.43 "Hg9 mi
11:00 PM
Oct 22
43 °FMostly cloudy.7 mph93%29.46 "Hg9 mi
10:00 PM43 °FPassing clouds.7 mph93%29.48 "Hg9 mi
9:00 PM43 °FQuite cool.7 mph93%29.49 "Hg9 mi
8:04 PM46 °FOvercast.5 mph87%29.49 "Hg9 mi
7:00 PM45 °FPassing clouds.9 mph93%29.48 "Hg9 mi
6:00 PM46 °FScattered clouds.8 mph87%29.50 "Hg9 mi
5:00 PM50 °FSunny.7 mph71%29.53 "Hg9 mi
4:00 PM52 °FSunny.7 mph67%29.54 "Hg9 mi
3:00 PM54 °FSunny.No wind58%29.54 "Hg9 mi
2:00 PM52 °FScattered clouds.5 mph58%29.56 "Hg9 mi
1:00 PM50 °FBroken clouds.2 mph71%29.57 "Hg9 mi
12:00 PM48 °FCool.3 mph82%29.57 "Hg9 mi
11:00 AM46 °FOvercast.5 mph87%29.56 "Hg9 mi
10:00 AM46 °FMostly cloudy.6 mph87%29.55 "Hg9 mi
9:00 AM45 °FCloudy.6 mph93%29.50 "Hg9 mi
8:59 AM45 °FLight rain. Cloudy.6 mph93%29.50 "Hg9 mi
8:00 AM50 °FMostly cloudy.14 mph67%29.45 "Hg9 mi
7:00 AM50 °FLight rain. Mostly cloudy.20 mph71%29.41 "Hg9 mi
6:51 AM50 °FLight rain. Overcast.17 mph67%29.40 "Hg9 mi
6:00 AM50 °FMostly cloudy.17 mph71%29.40 "Hg9 mi
5:45 AM50 °FMostly cloudy.15 mph71%29.39 "Hg9 mi
5:00 AM48 °FLight rain. Overcast.20 mph82%29.41 "Hg9 mi
4:58 AM48 °FLight rain. Overcast.21 mph82%29.41 "Hg9 mi
4:03 AM50 °FLight rain. Overcast.22 mph71%29.41 "Hg9 mi
4:00 AM50 °FLight rain. Overcast.24 mph71%29.42 "Hg9 mi
Weather by CustomWeather, © 2014

See weather overviewHow to use our weather pages